Tracking 19164 objects as of 21-May-2018
HD Live streaming from Space Station
objects crossing your sky now

METEOR 1-19

Track METEOR 1-19 now!
10-day predictions
METEOR 1-19 is classified as:


NORAD ID: 7490
Int'l Code: 1974-083A
Perigee: 844.2 km
Apogee: 888.9 km
Inclination: 81.2 °
Period: 102.1 minutes
Semi major axis: 7237 km
RCS: 4.6009 m2 (large)
Launch date: October 28, 1974
Source: Commonwealth of Independent States (former USSR) (CIS)
Launch site: PLESETSK MISSILE AND SPACE COMPLEX (PKMTR)
aabbcc
Your satellite tracking list
Your tracking list is empty




NASA's NSSDC Master Catalog

Two Line Element Set (TLE):
1 07490U 74083A   18141.14624370 -.00000059  00000-0 -40398-4 0  9998
2 07490  81.1853 147.1555 0030882 135.3893 224.9771 14.09998169239506
Source of the keplerian elements: AFSPC